McMinnville, OR

4:06 AM PDT on June 29, 2017 (GMT -0700)
McMinnville Municipal

Weather History for KMMV - May, 2014

Change the Weather History Date:

Friday, May 16, 2014

  Actual Average Record
Temperature  
Mean Temperature 58 °F 56 °F  
Max Temperature 70 °F 68 °F 97 °F (2008)
Min Temperature 46 °F 43 °F 34 °F (1938)
Degree Days  
Heating Degree Days 7 10  
Month to date heating degree days 115 175  
Since 1 July heating degree days 4434 4573  
Cooling Degree Days 0 0  
Month to date cooling degree days 15 0  
Year to date cooling degree days 19 0  
Growing Degree Days 8 (Base 50)    
Moisture  
Dew Point 50 °F    
Average Humidity 75    
Maximum Humidity 100    
Minimum Humidity 49    
Precipitation  
Precipitation 0.00 in 0.08 in 0.83 in (1901)
Month to date precipitation 1.50 1.15  
Year to date precipitation 20.53 18.63  
Sea Level Pressure  
Sea Level Pressure 30.12 in    
Wind  
Wind Speed 6 mph (SSW)    
Max Wind Speed 16 mph    
Max Gust Speed 22 mph    
Visibility 10 miles    
Events      
T = Trace of Precipitation, MM = Missing Value Source: NWS Daily Summary

Daily Weather History Graph

Daily Weather History Graph

Search for Another Location

Airport or City:

Trip Planner

Search our weather history database for the weather conditions in past years. The results will help you decide how hot, cold, wet, or windy it might be!

Date:

Astronomy

May. 16, 2014 Rise Set
Actual Time 5:41 AM PDT 8:36 PM PDT
Civil Twilight 5:07 AM PDT 9:11 PM PDT
Nautical Twilight 4:23 AM PDT 9:55 PM PDT
Astronomical Twilight 3:31 AM PDT 10:48 PM PDT
Moon 10:48 PM PDT (5/16) 7:28 AM PDT (5/16)
Length of Visible Light 16h 04m
Length of Day
14h 55m
Waning Gibbous, 95% of the Moon is Illuminated
May 16
Waning Gibbous
May 21
Last Quarter
May 28
New
Jun 5
First Quarter
Jun 12
Full

Hourly Weather History & Observations

Time (PDT) Temp. Dew Point Humidity Pressure Visibility Wind Dir Wind Speed Gust Speed Precip Events Conditions
1:53 AM 50.0 °F 48.0 °F 93% 30.13 in 10.0 mi South 6.9 mph - N/A   Clear
2:53 AM 50.0 °F 48.0 °F 93% 30.12 in 10.0 mi Calm Calm - N/A   Clear
3:53 AM 46.9 °F 46.9 °F 100% 30.12 in 9.0 mi Calm Calm - N/A   Clear
4:53 AM 48.0 °F 46.0 °F 93% 30.13 in 10.0 mi Calm Calm - N/A   Partly Cloudy
5:53 AM 46.9 °F 46.0 °F 97% 30.13 in 10.0 mi Calm Calm - N/A   Clear
6:53 AM 48.9 °F 48.0 °F 97% 30.14 in 10.0 mi Calm Calm - N/A   Clear
7:53 AM 53.1 °F 51.1 °F 93% 30.15 in 10.0 mi Calm Calm - N/A   Partly Cloudy
8:53 AM 57.0 °F 53.1 °F 87% 30.15 in 10.0 mi SE 3.5 mph - N/A   Mostly Cloudy
9:53 AM 60.1 °F 53.1 °F 78% 30.15 in 10.0 mi SSW 6.9 mph - N/A   Mostly Cloudy
10:53 AM 61.0 °F 50.0 °F 67% 30.16 in 10.0 mi SSW 5.8 mph - N/A   Overcast
11:53 AM 64.0 °F 51.1 °F 63% 30.15 in 10.0 mi SSW 6.9 mph - N/A   Overcast
1:53 PM 66.9 °F 52.0 °F 59% 30.13 in 10.0 mi SE 8.1 mph - N/A   Partly Cloudy
2:53 PM 68.0 °F 51.1 °F 55% 30.11 in 10.0 mi SSW 4.6 mph - N/A   Clear
3:53 PM 69.1 °F 51.1 °F 53% 30.10 in 10.0 mi SSW 8.1 mph - N/A   Clear
4:53 PM 70.0 °F 51.1 °F 51% 30.09 in 10.0 mi WSW 13.8 mph 19.6 mph N/A   Partly Cloudy
5:53 PM 68.0 °F 48.9 °F 50% 30.09 in 10.0 mi WSW 13.8 mph - N/A   Partly Cloudy
6:53 PM 64.0 °F 48.9 °F 58% 30.09 in 10.0 mi WSW 12.7 mph - N/A   Clear
8:53 PM 57.0 °F 50.0 °F 77% 30.10 in 10.0 mi SSW 9.2 mph - N/A   Clear
9:53 PM 55.9 °F 50.0 °F 80% 30.10 in 10.0 mi West 10.4 mph - N/A   Scattered Clouds
10:53 PM 52.0 °F 50.0 °F 93% 30.11 in 10.0 mi SW 5.8 mph - N/A   Clear
11:53 PM 51.1 °F 48.9 °F 92% 30.11 in 10.0 mi SW 5.8 mph - N/A   Clear